Waarnemingen

Advertentie
Mijn weer
Aurillac, Frankrijk (7549): temperatuur & dauwpunt: 13.06.2018 06:00:00 - 19.06.2018 06:00:00 (CEST)Aurillac, Frankrijk (7549): temperatuur 5cm: 13.06.2018 06:00:00 - 19.06.2018 06:00:00 (CEST)Aurillac, Frankrijk (7549): temperatuur -20cm & temperatuur -100cm: 13.06.2018 06:00:00 - 19.06.2018 06:00:00 (CEST)Aurillac, Frankrijk (7549): windsnelheid & windstoten: 13.06.2018 06:00:00 - 19.06.2018 06:00:00 (CEST)Aurillac, Frankrijk (7549): windrichting: 13.06.2018 06:00:00 - 19.06.2018 06:00:00 (CEST)Aurillac, Frankrijk (7549): luchtdruk: 13.06.2018 06:00:00 - 19.06.2018 06:00:00 (CEST)Aurillac, Frankrijk (7549): zicht: 13.06.2018 06:00:00 - 19.06.2018 06:00:00 (CEST)Aurillac, Frankrijk (7549): Zonneschijnduur: 13.06.2018 06:00:00 - 19.06.2018 06:00:00 (CEST)Aurillac, Frankrijk (7549): neerslag: 13.06.2018 06:00:00 - 19.06.2018 06:00:00 (CEST)
Datum & Tijd tt [°C] td [°C] tt 5cm [°C] tt -20cm [°C] tt -100cm [°C] ff [km/u] ff [kn] fx [km/u] fx [kn] dd ppp [hPa] vv [km] sd [min] rr [mm]
19.06.2018 06:00:00 10,0 9,7 5,5 17,8 15,0 4 2 5 3 ONO 1025,7 0,7 0 0,0
19.06.2018 05:00:00 10,8 10,5 6,3 17,8 14,9 0 0 9 5 N 1025,3 3,0 0 0,2
19.06.2018 04:00:00 11,8 10,5 7,9 17,9 15,0 7 4 11 6 NNO 1025,0 59 0 0,0
19.06.2018 03:00:00 12,2 11,3 8,3 17,9 15,0 6 3 12 6 N 1025,2 48 0 0,0
19.06.2018 02:00:00 13,0 11,6 9,4 17,9 15,0 5 3 9 5 NO 1025,2 32 0 0,0
19.06.2018 01:00:00 13,8 12,9 11,1 17,9 15,0 0 0 13 7 N 1025,2 19 0 0,0
19.06.2018 00:00:00 14,7 13,4 13,3 17,8 14,9 9 5 16 9 WNW 1025,1 20 0 0,0
18.06.2018 23:00:00 15,1 13,5 13,1 17,8 15,0 8 5 13 7 WNW 1024,9 20 0 0,0
18.06.2018 22:00:00 16,2 13,5 14,9 17,8 15,0 8 4 26 14 NW 1023,9 40 13 0,0
18.06.2018 21:00:00 18,0 13,7 17,4 17,7 15,0 16 9 33 18 NW 1023,1 20 30 0,0
18.06.2018 20:00:00 19,1 13,9 19,2 17,6 15,0 20 11 34 19 NW 1022,8 19 47 0,0
18.06.2018 19:00:00 19,9 14,0 21,7 17,5 14,9 21 11 34 18 NW 1022,4 20 55 0,0
18.06.2018 18:00:00 21,1 13,5 21,7 17,4 14,9 19 10 30 16 NW 1022,2 18 33 0,0
18.06.2018 17:00:00 20,7 13,2 22,8 17,4 14,9 17 9 29 15 NW 1022,6 19 52 0,0
18.06.2018 16:00:00 19,9 12,4 21,2 17,3 14,9 18 10 27 15 NW 1023,0 20 22 0,0
18.06.2018 15:00:00 19,1 13,7 20,5 17,3 14,9 19 10 33 18 NW 1023,4 20 14 0,0
18.06.2018 14:00:00 17,9 12,8 20,7 17,3 14,9 16 9 28 15 NNW 1023,8 20 7 0,0
18.06.2018 13:00:00 17,2 12,5 20,6 17,3 14,9 17 9 31 17 NW 1024,2 18 10 0,0
18.06.2018 12:00:00 17,1 12,4 21,0 17,3 14,9 19 10 29 16 WNW 1024,0 18 35 0,0
18.06.2018 11:00:00 16,3 11,9 18,9 17,4 14,9 18 10 31 17 WNW 1024,3 14 38 0,0
18.06.2018 10:00:00 15,3 11,5 17,7 17,4 14,9 15 8 29 16 WNW 1024,4 17 45 0,0
18.06.2018 09:00:00 14,7 11,7 14,4 17,5 14,9 12 7 18 10 WNW 1024,3 17 60 0,0
18.06.2018 08:00:00 11,9 10,8 10,8 17,5 14,9 8 4 11 6 WNW 1024,7 14 53 0,0
18.06.2018 07:00:00 10,6 10,1 9,1 17,6 14,9 6 3 8 4 WNW 1025,1 9 27 0,0
18.06.2018 06:00:00 9,9 9,6 8,5 17,7 14,9 6 3 11 6 NW 1025,3 4,7 0 0,0
18.06.2018 05:00:00 10,3 9,7 7,9 17,7 14,9 6 4 10 5 WNW 1025,0 11 0 0,0
18.06.2018 04:00:00 11,0 9,6 9,7 17,8 14,9 8 5 11 6 W 1024,8 15 0 0,0
18.06.2018 03:00:00 12,0 10,6 9,8 17,8 14,9 7 4 13 7 WNW 1024,7 17 0 0,0
18.06.2018 02:00:00 11,9 10,1 10,0 17,8 14,9 6 3 12 6 WNW 1024,7 18 0 0,0
18.06.2018 01:00:00 12,7 11,1 9,9 17,8 14,9 6 3 11 6 WNW 1024,6 20 0 0,0
18.06.2018 00:00:00 13,8 11,0 11,1 17,8 14,9 4 2 5 3 WNW 1024,2 20 0 0,0
17.06.2018 23:00:00 14,4 11,0 12,5 17,7 14,9 3 2 5 3 WZW 1023,9 20 0 0,0
17.06.2018 22:00:00 14,6 10,6 12,0 17,7 14,9 5 3 16 9 WNW 1023,5 15 11 0,0
17.06.2018 21:00:00 16,5 10,8 15,7 17,7 14,9 13 7 22 12 NW 1022,5 40 20 0,0
17.06.2018 20:00:00 16,9 9,8 17,1 17,6 14,9 16 9 29 16 NW 1022,6 44 29 0,0
17.06.2018 19:00:00 17,5 9,9 18,7 17,5 14,9 14 7 27 14 NNW 1022,0 19 17 0,0
17.06.2018 18:00:00 18,7 10,3 19,2 17,5 14,9 18 10 26 14 NW 1021,5 19 21 0,0
17.06.2018 17:00:00 17,4 10,5 18,8 17,4 14,9 11 6 24 13 NNW 1022,1 19 10 0,0
17.06.2018 16:00:00 16,8 9,9 19,4 17,4 14,9 16 9 25 13 NNW 1022,3 20 13 0,0
17.06.2018 15:00:00 16,6 10,0 18,8 17,4 14,9 15 8 29 16 WNW 1022,1 20 11 0,0
17.06.2018 14:00:00 17,2 10,6 17,9 17,4 14,9 13 7 29 16 WNW 1021,8 19 10 0,0
17.06.2018 13:00:00 15,6 10,4 18,6 17,4 14,9 19 10 29 16 WNW 1022,3 19 1 0,0
17.06.2018 12:00:00 15,8 10,1 19,1 17,4 14,9 12 6 19 10 WNW 1021,9 18 17 0,0
17.06.2018 11:00:00 15,1 10,9 15,4 17,5 14,9 14 8 21 11 NW 1022,1 17 18 0,0
17.06.2018 10:00:00 13,7 10,5 14,5 17,5 14,9 13 7 22 12 WNW 1022,6 18 6 0,0
17.06.2018 09:00:00 14,0 11,7 13,8 17,6 14,9 8 4 19 10 NW 1022,1 14 16 0,0
17.06.2018 08:00:00 12,5 11,7 12,8 17,6 14,9 10 6 16 9 NW 1022,4 9 0 0,0
17.06.2018 07:00:00 12,3 11,2 12,3 17,7 14,9 10 5 14 8 NW 1021,8 12 0 0,0
17.06.2018 06:00:00 12,5 11,7 12,4 17,7 14,9 8 4 16 9 NW 1021,4 10 0 0,0
17.06.2018 05:00:00 12,8 11,9 12,7 17,8 14,9 10 6 15 8 NW 1021,2 12 0 0,0
17.06.2018 04:00:00 13,0 12,1 12,8 17,8 14,9 9 5 14 7 NW 1021,0 11 0 0,0
17.06.2018 03:00:00 12,9 12,0 12,8 17,8 14,9 7 4 11 6 WNW 1021,0 12 0 0,0
17.06.2018 02:00:00 13,0 11,6 11,6 17,8 14,8 8 5 11 6 WNW 1021,1 14 0 0,0
17.06.2018 01:00:00 12,9 11,0 11,9 17,8 14,9 5 3 8 4 WNW 1020,9 17 0 0,0
17.06.2018 00:00:00 13,2 10,9 9,4 17,8 14,8 6 3 8 5 WNW 1020,9 17 0 0,0
16.06.2018 23:00:00 14,2 10,6 10,3 17,8 14,9 4 2 11 6 WNW 1020,5 19 0 0,0
16.06.2018 22:00:00 15,5 10,3 14,4 17,7 14,9 7 4 19 10 NNW 1019,6 20 13 0,0
16.06.2018 21:00:00 17,0 11,0 16,8 17,6 14,9 13 7 20 11 NW 1018,6 20 53 0,0
16.06.2018 20:00:00 17,5 11,1 17,9 17,5 14,9 13 7 22 12 WNW 1017,8 20 0 0,0
16.06.2018 19:00:00 18,2 11,7 19,1 17,5 14,9 13 7 25 14 WNW 1017,3 42 20 0,0
16.06.2018 18:00:00 18,8 12,3 21,6 17,4 14,8 16 9 28 15 WNW 1017,0 19 46 0,0
16.06.2018 17:00:00 19,4 13,3 20,8 17,3 14,9 16 9 27 15 W 1016,7 19 5 0,0
16.06.2018 16:00:00 19,1 13,1 20,8 17,3 14,9 16 9 29 16 NW 1016,7 20 31 0,0
16.06.2018 15:00:00 18,4 12,6 20,6 17,2 14,8 17 9 24 13 WNW 1017,2 53 19 0,0
16.06.2018 14:00:00 19,8 13,5 24,4 17,2 14,8 13 7 23 12 WNW 1017,0 18 47 0,0
16.06.2018 13:00:00 18,6 13,2 22,9 17,2 14,8 13 7 24 13 NW 1017,4 19 55 0,0
16.06.2018 12:00:00 17,7 12,6 17,9 17,2 14,8 15 8 29 16 NW 1017,6 19 30 0,0
16.06.2018 11:00:00 15,9 12,8 18,0 17,2 14,8 16 9 25 13 WNW 1018,1 20 0 0,0
16.06.2018 10:00:00 15,8 13,5 16,3 17,3 14,9 12 6 18 10 WNW 1017,7 19 0 0,0
16.06.2018 09:00:00 15,0 13,5 16,4 17,3 14,8 10 5 16 9 W 1017,7 19 9 0,0
16.06.2018 08:00:00 15,4 13,1 14,2 17,3 14,9 0 0 6 3 N 1017,5 16 51 0,0
16.06.2018 07:00:00 13,3 11,9 13,2 17,4 14,9 2 1 5 3 ONO 1017,9 17 31 0,0
16.06.2018 06:00:00 12,9 12,3 12,9 17,4 14,8 0 0 6 3 N 1017,8 13 0 0,0
16.06.2018 05:00:00 13,5 13,2 12,1 17,4 14,8 4 2 10 5 NNW 1017,5 7 0 0,0
16.06.2018 04:00:00 14,2 13,6 13,8 17,4 14,8 6 3 10 5 WNW 1017,4 11 0 0,0
16.06.2018 03:00:00 14,3 13,7 14,1 17,4 14,8 6 3 12 7 WNW 1017,7 11 0 0,0
16.06.2018 02:00:00 14,2 13,4 12,8 17,5 14,8 5 3 9 5 NW 1018,1 13 0 0,0
16.06.2018 01:00:00 14,0 13,2 12,9 17,5 14,8 3 1 7 4 W 1018,0 14 0 0,0
16.06.2018 00:00:00 14,6 13,3 14,1 17,5 14,8 6 4 17 9 WNW 1017,7 17 0 0,0
15.06.2018 23:00:00 15,2 13,6 14,9 17,5 14,8 11 6 16 9 NW 1017,6 19 0 0,0
15.06.2018 22:00:00 15,5 13,7 15,2 17,5 14,8 13 7 17 9 NW 1017,1 18 2 0,0
15.06.2018 21:00:00 16,1 13,8 16,0 17,5 14,8 8 4 16 9 NW 1016,7 20 0 0,0
15.06.2018 20:00:00 16,7 13,8 17,2 17,4 14,8 13 7 28 15 NW 1016,6 31 0 0,0
15.06.2018 19:00:00 16,9 13,8 17,4 17,4 14,8 15 8 24 13 WNW 1016,5 20 0 0,0
15.06.2018 18:00:00 16,8 13,9 17,3 17,4 14,8 14 8 23 12 WNW 1016,4 19 0 0,0
15.06.2018 17:00:00 17,7 13,4 18,3 17,4 14,8 16 9 24 13 WNW 1016,2 19 0 0,0
15.06.2018 16:00:00 17,6 12,7 19,4 17,4 14,8 7 4 17 9 NW 1016,5 20 0 0,0
15.06.2018 15:00:00 16,7 12,6 19,1 17,4 14,8 10 5 18 10 NW 1016,6 19 0 0,0
15.06.2018 14:00:00 15,6 13,3 15,1 17,4 14,8 10 5 19 11 NNW 1017,2 16 0 0,0
15.06.2018 13:00:00 14,2 12,4 14,1 17,4 14,8 10 5 19 11 NNW 1017,7 11 0 1,0
15.06.2018 12:00:00 14,3 13,3 14,8 17,5 14,8 11 6 19 10 W 1017,5 7 0 1,2
15.06.2018 11:00:00 15,4 13,4 16,8 17,5 14,8 13 7 21 12 WNW 1016,9 18 0 0,0
15.06.2018 10:00:00 15,2 12,9 16,8 17,5 14,8 10 5 14 8 W 1017,0 15 0 0,0
15.06.2018 09:00:00 14,1 12,3 14,4 17,5 14,8 5 3 11 6 W 1017,0 17 0 0,0
15.06.2018 08:00:00 13,0 11,7 12,6 17,6 14,8 0 0 8 4 N 1016,8 13 0 0,0
15.06.2018 07:00:00 12,6 11,7 12,2 17,7 14,8 2 1 9 5 W 1017,0 12 0 0,0
15.06.2018 06:00:00 12,3 11,5 11,8 17,7 14,8 7 4 13 7 WNW 1017,1 13 0 0,0
15.06.2018 05:00:00 12,4 11,5 11,9 17,8 14,8 8 4 12 7 WNW 1017,1 14 0 0,0
15.06.2018 04:00:00 13,2 11,6 12,3 17,8 14,8 6 3 11 6 NNW 1017,2 17 0 0,0
15.06.2018 03:00:00 13,4 11,8 12,8 17,8 14,8 8 4 21 11 NW 1017,6 18 0 0,0
15.06.2018 02:00:00 13,6 12,0 13,1 17,8 14,8 6 3 16 9 W 1017,8 16 0 0,0
15.06.2018 01:00:00 14,0 11,9 13,3 17,8 14,8 10 5 18 10 NW 1017,8 18 0 0,0
15.06.2018 00:00:00 14,3 11,8 13,5 17,8 14,8 11 6 16 8 NW 1017,8 18 0 0,0
14.06.2018 23:00:00 15,2 12,0 13,6 17,7 14,8 10 6 17 9 NW 1017,7 16 0 0,0
14.06.2018 22:00:00 15,6 11,4 14,5 17,7 14,8 5 3 16 9 NW 1017,1 20 0 0,0
14.06.2018 21:00:00 16,3 11,2 15,9 17,6 14,8 11 6 31 17 NW 1016,7 20 27 0,0
14.06.2018 20:00:00 17,9 11,2 18,4 17,5 14,7 16 9 28 15 NW 1015,9 20 32 0,0
14.06.2018 19:00:00 17,8 11,4 18,8 17,4 14,7 20 11 36 19 WNW 1015,6 19 16 0,0
14.06.2018 18:00:00 19,2 11,0 20,3 17,3 14,8 19 11 32 18 NW 1015,1 20 28 0,0
14.06.2018 17:00:00 20,1 11,6 21,0 17,3 14,8 19 10 37 20 NW 1015,0 18 45 0,0
14.06.2018 16:00:00 18,3 10,4 20,5 17,2 14,7 21 11 31 17 WNW 1015,8 17 30 0,0
14.06.2018 15:00:00 19,0 10,0 22,1 17,2 14,7 19 10 37 20 NNW 1015,9 15 57 0,0
14.06.2018 14:00:00 17,9 9,3 22,6 17,2 14,7 21 12 39 21 NNW 1016,4 16 60 0,0
14.06.2018 13:00:00 16,7 8,4 22,0 17,2 14,7 24 13 35 19 NW 1016,9 16 60 0,0
14.06.2018 12:00:00 16,0 9,6 20,0 17,2 14,7 20 11 32 18 NW 1017,1 16 60 0,0
14.06.2018 11:00:00 14,7 9,5 18,7 17,3 14,7 19 10 30 16 NW 1017,1 17 60 0,0
14.06.2018 10:00:00 12,5 9,9 15,0 17,4 14,7 13 7 20 11 WNW 1017,7 18 60 0,0
14.06.2018 09:00:00 9,4 7,8 10,8 17,5 14,7 6 3 10 5 W 1018,6 18 60 0,0
14.06.2018 08:00:00 7,4 6,8 7,0 17,6 14,7 2 1 7 4 NW 1019,0 9 53 0,0
14.06.2018 07:00:00 6,6 6,3 1,5 17,7 14,7 2 1 5 3 O 1019,3 12 28 0,0
14.06.2018 06:00:00 5,5 5,1 1,2 17,8 14,7 2 1 6 3 O 1019,1 11 0 0,0
14.06.2018 05:00:00 5,9 5,0 1,6 17,8 14,7 0 0 4 2 N 1018,8 15 0 0,0
14.06.2018 04:00:00 6,9 6,0 2,8 17,9 14,7 0 0 9 5 N 1018,6 18 0 0,0
14.06.2018 03:00:00 7,7 5,8 5,6 17,9 14,7 8 4 9 5 WZW 1018,5 20 0 0,0
14.06.2018 02:00:00 7,9 5,9 4,9 18,0 14,7 7 4 9 5 WZW 1019,0 20 0 0,0
14.06.2018 01:00:00 9,4 6,7 6,9 18,0 14,7 5 3 11 6 WNW 1018,8 60 0 0,0
14.06.2018 00:00:00 10,9 6,8 9,3 18,0 14,7 9 5 24 13 NNW 1018,6 53 0 0,0
13.06.2018 23:00:00 11,9 6,8 10,0 18,0 14,7 9 5 22 12 N 1018,1 58 0 0,0
13.06.2018 22:00:00 13,0 6,6 11,2 18,0 14,7 14 7 26 14 N 1017,4 60 3 0,0
13.06.2018 21:00:00 14,2 7,5 13,4 18,0 14,7 14 8 31 17 N 1016,8 33 50 0,0
13.06.2018 20:00:00 14,8 8,1 14,6 17,9 14,7 16 9 36 19 N 1016,7 44 31 0,0
13.06.2018 19:00:00 16,6 8,8 17,2 17,9 14,7 20 11 34 18 NNW 1015,5 20 23 0,0
13.06.2018 18:00:00 17,8 8,6 18,0 17,8 14,6 18 10 36 19 NNW 1014,8 19 32 0,0
13.06.2018 17:00:00 18,9 9,9 19,1 17,8 14,7 20 11 38 21 NNW 1014,4 19 34 0,0
13.06.2018 16:00:00 18,1 8,6 20,1 17,7 14,6 18 10 31 17 N 1014,8 17 17 0,0
13.06.2018 15:00:00 17,8 9,9 19,7 17,7 14,6 18 10 38 21 NNW 1015,1 16 32 0,0
13.06.2018 14:00:00 17,3 9,5 19,9 17,7 14,7 22 12 45 24 N 1015,3 15 43 0,0
13.06.2018 13:00:00 17,1 8,8 19,9 17,7 14,6 22 12 45 24 N 1015,3 16 51 0,0
13.06.2018 12:00:00 16,8 8,7 20,3 17,7 14,6 21 12 41 22 N 1015,0 17 56 0,0
13.06.2018 11:00:00 15,9 9,8 18,1 17,8 14,6 22 12 40 21 N 1014,7 16 52 0,0
13.06.2018 10:00:00 15,5 9,6 18,4 17,8 14,6 22 12 41 22 N 1014,4 14 60 0,2
13.06.2018 09:00:00 14,4 10,8 14,5 17,9 14,6 17 9 32 18 NNW 1014,0 14 60 0,0
13.06.2018 08:00:00 13,1 11,7 12,1 17,9 14,6 14 7 23 12 NW 1013,9 15 11 0,0
13.06.2018 07:00:00 12,8 11,2 12,2 18,0 14,6 13 7 25 13 NNW 1013,8 19 0 0,0
13.06.2018 06:00:00 12,8 12,0 12,5 18,0 14,6 11 6 24 13 NNW 1013,4 44 0 0,0

tt = temperatuur
td = dauwpunt
tt 5cm = temperatuur 5cm
tt -20cm = temperatuur -20cm
tt -100cm = temperatuur -100cm
ff = windsnelheid
fx = windstoten
dd = windrichting
ppp = luchtdruk
vv = zicht
sd = Zonneschijnduur
rr = neerslag

Weerstations in de omgeving